Bastia, France

6:12 PM CEST on September 29, 2016 (GMT +0200)
Poretta

Weather History for LFKB - December, 2012

Change the Weather History Date:

Saturday, December 1, 2012

  Actual Average Record
Temperature  
Mean Temperature 52 °F -  
Max Temperature 60 °F 59 °F 66 °F (1999)
Min Temperature 43 °F 45 °F 41 °F (2005)
Degree Days  
Heating Degree Days 14    
Growing Degree Days 2 (Base 50)    
Moisture  
Dew Point 41 °F    
Average Humidity 72    
Maximum Humidity 93    
Minimum Humidity 46    
Precipitation  
Precipitation 0.00 in - - ()
Sea Level Pressure  
Sea Level Pressure 29.66 in    
Wind  
Wind Speed 5 mph ()    
Max Wind Speed 13 mph    
Max Gust Speed -    
Visibility 6.7 miles    
Events      
Averages and records for this station are not official NWS values.
T = Trace of Precipitation, MM = Missing Value Source: Averaged Metar Reports

Daily Weather History Graph

Daily Weather History Graph

Search for Another Location

Airport or City:

Trip Planner

Search our weather history database for the weather conditions in past years. The results will help you decide how hot, cold, wet, or windy it might be!

Date:

Astronomy

Dec. 01, 2012 Rise Set
Actual Time 7:32 AM CET 4:49 PM CET
Civil Twilight 7:00 AM CET 5:21 PM CET
Nautical Twilight 6:25 AM CET 5:56 PM CET
Astronomical Twilight 5:51 AM CET 6:30 PM CET
Moon 7:25 PM CET (12/1) 9:33 AM CET (12/1)
Length of Visible Light 10h 20m
Length of Day
9h 17m
Waning Gibbous, 93% of the Moon is Illuminated
Dec 1
Waning Gibbous
Dec 6
Last Quarter
Dec 13
New
Dec 20
First Quarter
Dec 28
Full

Hourly Weather History & Observations

Time (CET) Temp. Windchill Dew Point Humidity Pressure Visibility Wind Dir Wind Speed Gust Speed Precip Events Conditions
12:00 AM 44.6 °F 41.4 °F 37.4 °F 76% 29.53 in 6.2 mi SW 5.8 mph - N/A   Unknown
12:30 AM 44.6 °F 42.2 °F 37.4 °F 76% 29.53 in 6.2 mi SW 4.6 mph - N/A   Unknown
1:00 AM 45 °F - 38 °F 70% 29.55 in 34 mi SW 5.8 mph - -   Clear
1:00 AM 44.6 °F 41.4 °F 39.2 °F 81% 29.53 in 6.2 mi SW 5.8 mph - N/A   Overcast
1:30 AM 44.6 °F 43.1 °F 37.4 °F 76% 29.53 in 5.6 mi SW 3.5 mph - N/A   Mostly Cloudy
2:00 AM 44.6 °F 41.4 °F 37.4 °F 76% 29.53 in 6.2 mi SSW 5.8 mph - N/A   Scattered Clouds
2:30 AM 46.4 °F 41.1 °F 39.2 °F 76% 29.53 in 6.2 mi SW 11.5 mph - N/A   Mostly Cloudy
3:16 AM 46.4 °F 41.5 °F 37.4 °F 71% 29.56 in 6.2 mi SW 10.4 mph - N/A   Mostly Cloudy
3:30 AM 46.4 °F 41.5 °F 37.4 °F 71% 29.56 in 6.2 mi SW 10.4 mph - N/A   Mostly Cloudy
4:00 AM 46.4 °F 40.7 °F 37.4 °F 71% 29.56 in 6.2 mi SW 12.7 mph - N/A   Mostly Cloudy
5:00 AM 48.2 °F - 39.2 °F 71% 29.56 in 6.2 mi WSW 11.5 mph - N/A   Mostly Cloudy
5:34 AM 46.4 °F 43.5 °F 37.4 °F 71% 29.56 in 6.2 mi SSW 5.8 mph - N/A   Mostly Cloudy
6:00 AM 46.4 °F 41.9 °F 37.4 °F 71% 29.59 in 6.2 mi SSW 9.2 mph - N/A   Mostly Cloudy
7:00 AM 46 °F - 38 °F 65% 29.62 in 9 mi SSW 9.2 mph - -   Scattered Clouds
7:00 AM 46.4 °F 41.9 °F 37.4 °F 71% 29.59 in 6.2 mi SSW 9.2 mph - N/A   Scattered Clouds
7:30 AM 46.4 °F 43.5 °F 37.4 °F 71% 29.62 in 6.2 mi SW 5.8 mph - N/A   Scattered Clouds
8:00 AM 44.6 °F 43.1 °F 37.4 °F 76% 29.62 in 6.2 mi SSW 3.5 mph - N/A   Scattered Clouds
8:30 AM 46.4 °F 43.5 °F 39.2 °F 76% 29.62 in 6.2 mi SW 5.8 mph - N/A   Partly Cloudy
9:00 AM 48.2 °F - 39.2 °F 71% 29.62 in 6.2 mi SW 8.1 mph - N/A   Partly Cloudy
9:30 AM 51.8 °F - 41.0 °F 67% 29.65 in 6.2 mi SW 8.1 mph - N/A   Partly Cloudy
10:00 AM 53.6 °F - 41.0 °F 62% 29.65 in 6.2 mi SW 5.8 mph - N/A   Partly Cloudy
10:30 AM 55.4 °F - 41.0 °F 58% 29.68 in 6.2 mi Variable 3.5 mph - N/A   Partly Cloudy
11:00 AM 57.2 °F - 41.0 °F 55% 29.68 in 6.2 mi Variable 2.3 mph - N/A   Partly Cloudy
11:30 AM 59.0 °F - 39.2 °F 48% 29.68 in 6.2 mi Variable 2.3 mph - N/A   Partly Cloudy
12:00 PM 59.0 °F - 41.0 °F 51% 29.68 in 6.2 mi Variable 3.5 mph - N/A   Partly Cloudy
12:30 PM 59.0 °F - 41.0 °F 51% 29.68 in 6.2 mi NNE 4.6 mph - N/A   Partly Cloudy
1:00 PM 58 °F - 43 °F 46% 29.68 in 16 mi NE 4.6 mph - -   Scattered Clouds
1:00 PM 59.0 °F - 44.6 °F 59% 29.68 in 6.2 mi NNE 5.8 mph - N/A   Partly Cloudy
1:30 PM 59.0 °F - 42.8 °F 55% 29.68 in 6.2 mi North 4.6 mph - N/A   Scattered Clouds
2:00 PM 57.2 °F - 44.6 °F 63% 29.68 in 6.2 mi Variable 2.3 mph - N/A   Mostly Cloudy
2:30 PM 57.2 °F - 44.6 °F 63% 29.68 in 6.2 mi NE 4.6 mph - N/A   Mostly Cloudy
3:00 PM 57.2 °F - 42.8 °F 59% 29.68 in 6.2 mi Variable 3.5 mph - N/A   Mostly Cloudy
3:30 PM 55.4 °F - 44.6 °F 67% 29.68 in 6.2 mi South 3.5 mph - N/A   Mostly Cloudy
4:30 PM 53.6 °F - 44.6 °F 72% 29.71 in 6.2 mi NW 4.6 mph - N/A   Mostly Cloudy
5:00 PM 51.8 °F - 46.4 °F 82% 29.71 in 6.2 mi NW 2.3 mph - N/A   Mostly Cloudy
5:30 PM 51.8 °F - 44.6 °F 76% 29.71 in 6.2 mi NW 6.9 mph - N/A   Mostly Cloudy
6:00 PM 51.8 °F - 44.6 °F 76% 29.71 in 6.2 mi NW 4.6 mph - N/A   Mostly Cloudy
6:34 PM 51.8 °F - 46.4 °F 82% 29.74 in 6.2 mi WNW 3.5 mph - N/A   Mostly Cloudy
7:00 PM 50 °F - 46 °F 80% 29.75 in 16 mi West 3.5 mph - -   Mostly Cloudy
7:00 PM 50.0 °F - 46.4 °F 87% 29.74 in 6.2 mi West 3.5 mph - N/A   Mostly Cloudy
7:30 PM 50.0 °F - 44.6 °F 82% 29.74 in 6.2 mi WSW 3.5 mph - N/A   Mostly Cloudy
8:00 PM 46.4 °F 45.2 °F 44.6 °F 93% 29.74 in 6.2 mi SW 3.5 mph - N/A   Partly Cloudy
8:30 PM 46.4 °F 44.3 °F 42.8 °F 87% 29.74 in 6.2 mi SSW 4.6 mph - N/A   Partly Cloudy
9:06 PM 48.2 °F - 42.8 °F 82% 29.74 in 6.2 mi SSW 6.9 mph - N/A   Partly Cloudy
9:30 PM 46.4 °F 45.2 °F 42.8 °F 87% 29.77 in 6.2 mi Variable 3.5 mph - N/A   Partly Cloudy
10:00 PM 46.4 °F 43.5 °F 42.8 °F 87% 29.74 in 6.2 mi SSW 5.8 mph - N/A   Partly Cloudy
10:30 PM 44.6 °F 43.1 °F 41.0 °F 87% 29.77 in 6.2 mi West 3.5 mph - N/A   Scattered Clouds
11:00 PM 48.2 °F - 42.8 °F 82% 29.77 in 6.2 mi SSW 3.5 mph - N/A   Mostly Cloudy
11:30 PM 48.2 °F - 42.8 °F 82% 29.77 in 6.2 mi South 2.3 mph - N/A   Mostly Cloudy